Regional Weather Roundup
Issued by NWS

Home | Current Version | Previous Version | Text Only | Print | Product List | Glossary Off
Versions: 1 2 3 4 5 6 7 8 9 10 11 12 13 14 15 16 17 18 19 20 21 22 23 24 25 26 27 28 29 30 31 32 33 34 35 36 37 38 39 40 41 42 43 44 45 46 47 48 49 50

000
ASUS43 KBIS 021310
RWRND

NORTH DAKOTA REGIONAL WEATHER ROUNDUP
NATIONAL WEATHER SERVICE BISMARCK ND
800 AM CDT SUN AUG 02 2015

NOTE: "FAIR" INDICATES FEW OR NO CLOUDS BELOW 12,000 FEET WITH NO
SIGNIFICANT WEATHER AND/OR OBSTRUCTIONS TO VISIBILITY.


NDZ001>003-009>011-017-021400-
NORTHWEST NORTH DAKOTA

CITY           SKY/WX    TMP DP  RH WIND       PRES   REMARKS
WILLISTON      SUNNY     62  54  74 N6        29.98R
MINOT          SUNNY     61  53  75 W13       29.90R
MINOT AFB      SUNNY     62  58  85 NW13      29.89R
$$

NDZ018>021-031>035-040>046-021400-
SOUTHWEST NORTH DAKOTA

CITY           SKY/WX    TMP DP  RH WIND       PRES   REMARKS
BISMARCK       SUNNY     64  57  78 NW9       29.90R
DICKINSON      SUNNY     56  53  90 W7        29.95R
GARRISON         N/A     61  56  83 NW9       29.91R
HETTINGER ARPT SUNNY     55  51  86 NW5       29.98R
$$

NDZ004>008-012>016-024-026-027-054-021400-
NORTHEAST NORTH DAKOTA

CITY           SKY/WX    TMP DP  RH WIND       PRES   REMARKS
GRAND FORKS    MOSUNNY   65  59  81 N14       29.75R
GRND FRKS AFB  PTSUNNY   64  58  82 NW9       29.77R
DEVILS LAKE    SUNNY     63  54  72 N10       29.81R
$$

NDZ022-023-025-028>030-036>039-047>053-021400-
SOUTHEAST NORTH DAKOTA

CITY           SKY/WX    TMP DP  RH WIND       PRES   REMARKS
FARGO          MOSUNNY   67  61  81 N14       29.72R
JAMESTOWN      SUNNY     64  58  80 N15       29.81R
$$




USA.gov is the U.S. government's official web portal to all federal, state and local government web resources and services.